Regional Weather Roundup
Issued by NWS Upton, NY

Home | Current Version | Previous Version | Text Only | Print | Product List | Glossary On
Versions: 1 2 3 4 5 6 7 8 9 10 11 12 13 14 15 16 17 18 19 20 21 22 23 24 25 26 27
000
ASUS41 KOKX 291308
RWROKX

REGIONAL WEATHER ROUNDUP
NATIONAL WEATHER SERVICE NEW YORK NY
900 AM EDT SAT APR 29 2017

NOTE: "FAIR" INDICATES FEW OR NO CLOUDS BELOW 12,000 FEET WITH NO
SIGNIFICANT WEATHER AND/OR OBSTRUCTIONS TO VISIBILITY.

NYZ071-072-176-178-NJZ106-104-291400-
NEW YORK CITY METRO AREA

CITY           SKY/WX    TMP DP  RH WIND       PRES   REMARKS
Central Park   MOSUNNY   69  65  86 VRB3      30.04R
Wall St Helipt CLOUDY    65  62  90 W6        30.04R
Bronx Bot Gard   N/A     70  63  78 S2        30.03R
LaGuardia APRT CLOUDY    70  64  81 S9        30.01R
Kennedy INTL   CLOUDY    61  60  97 S9        30.03R FOG
Breezy Point     N/A     55 N/A N/A S10         N/A
Newark/Liberty CLOUDY    70  65  84 SW8       30.02R
Teterboro      MOSUNNY   69  65  86 SW8       29.99R
$$

NYZ177-179-078>081-291400-
LONG ISLAND NEW YORK

CITY           SKY/WX    TMP DP  RH WIND       PRES   REMARKS
Jones Beach      N/A     54 N/A N/A S13G18      N/A
Matinecock PT  NOT AVBL
Farmingdale    CLOUDY    62  61  96 SW12      30.02R
MacArthur/ISP  CLOUDY    64  64 100 SW6       30.00R FOG
Shirley        CLOUDY    63  62  97 SW6       30.00R
Mt Sinai Harb    N/A     63 N/A N/A S5          N/A
Westhampton    CLOUDY    62  60  93 SW6       30.01R
East Hampton   CLOUDY    61  60  98 W3        29.98F
Montauk          N/A     60  58  92 SE5       29.99
$$

NYZ052-065-067-291400-
HUDSON VALLEY

CITY           SKY/WX    TMP DP  RH WIND       PRES   REMARKS
White Plains   CLOUDY    67  61  81 S7        30.00R
Larchmont Harb   N/A     57 N/A N/A SW2         N/A
Croton O-T Hud   N/A     59 N/A N/A MISG        N/A
Newburgh       CLOUDY    66  59  77 W7        30.00R
Montgomery     CLOUDY    66  55  67 SW8       29.98R
Poughkeepsie   CLOUDY    67  52  58 SW5       29.97R
Albany         CLOUDY    68  51  54 S5        29.96R
$$

NJZ001-105-106-008-010-013-015-019>022-104-291400-
NEW JERSEY

CITY           SKY/WX    TMP DP  RH WIND       PRES   REMARKS
Newark/Liberty CLOUDY    70  65  84 SW8       30.02R
Teterboro      MOSUNNY   69  65  86 SW8       29.99R
Caldwell       CLOUDY    69  61  75 SW5       30.02R
Somerville     CLOUDY    67  65  93 SW5       30.02R
Linden           N/A     69  65  86 W5        30.03R
Perth Amboy      N/A     68 N/A N/A SW9         N/A
Sussex         CLOUDY    63  61  93 SW6       30.02R
Andover          N/A     64  60  87 SW5       30.04R
Trenton        PTSUNNY   68  67  96 SW6       30.04R FOG
Millville      PTSUNNY   75  71  87 W14G22    30.08R
Atlantic City  PTSUNNY   76  69  79 W12       30.08R
Wrightstown    PTSUNNY   71  70  95 SW7       30.04R
Toms River     CLOUDY    74  69  85 SW12      30.07R
Belmar         CLOUDY    68  66  93 S7        30.06R
$$

PAZ047>061-062-071-291400-
EASTERN PENNSYLVANIA

CITY           SKY/WX    TMP DP  RH WIND       PRES   REMARKS
Philadelphia   CLOUDY    71  67  87 SW8       30.06R
Allentown      PTSUNNY   66  60  81 SW6       30.05R
Scranton       PTSUNNY   60  58  92 SW6       30.05R
$$

CTZ002-004>006-009-010-012-RIZ004-006-007-MAZ004-011-015-291400-
SOUTHERN NEW ENGLAND
 IN CT

CITY           SKY/WX    TMP DP  RH WIND       PRES   REMARKS
Bradley INTL   CLOUDY    70  52  52 S3        29.96F
Hartford       PTSUNNY   70  54  56 CALM      29.96F
Danbury        PTSUNNY   66  57  72 CALM      29.99R
Wtrbury/Oxford   N/A     70  50  49 S6        29.98F
Bridgeport     CLOUDY    62  55  77 E5        29.98R
Meriden        CLOUDY    68  56  65 SE3       29.96F
New Haven      CLOUDY    64  57  78 S6        29.97S
Chester          N/A     70  59  68 CALM      29.98S
Groton         CLOUDY    60  56  86 CALM      29.97F
Wilimantic     CLOUDY    68  56  65 CALM      29.98F

 IN RI

CITY           SKY/WX    TMP DP  RH WIND       PRES   REMARKS
Providence     CLOUDY    65  56  72 S7        29.97F
Block Island   CLOUDY    57  56  96 S10       29.98F FOG
Westerly       CLOUDY    60  56  86 S3        29.98F
 IN MA

CITY           SKY/WX    TMP DP  RH WIND       PRES   REMARKS
Boston         CLOUDY    66  56  70 S6        29.96F
Worcester      CLOUDY    66  49  54 SW7       29.99S
Westfield      CLOUDY    65  57  75 CALM      29.96S
Provincetown   MOSUNNY   61  52  72 S9        29.97F
Nantucket      FOG       51  50  96 S9        30.03S VSB 1/4
$$

ANZ330-335-338-340-345-350-353-355-291400-
COASTAL MARINE OBSERVATIONS


STATION/POSITION TIME  SKY/WX   TEMP    WIND        PRES    VSBY  WAVE
                                AIR SEA DIR/SP/G                  HT/PER
                 (UTC)          (F)     (DEG/KT/KT) (MB)    (MI)  (FT/S)
NY HARB ENTRANCE 1150            54 51  170/ 10/ 12 1015.2          3/ 8
20 S FIRE ISLAND 1250            54 50  180/ 14/ 16 1015.9          4/ 8
GREAT SOUTH BAY  NOT AVBL
23 SSW MONTAUK P 1150            55 47              1014.9          4/ 8
15 E BARNEGAT LI 1230               54                N/A           4/ 8
HUDSON CANYON    1150            55 49  230/ 12/ 16 1017.0          4/ 8
KINGS POINT      1242            63 53  210/  7/  8 1015.7
EXECUTION ROCKS  NOT AVBL
CENTRAL LI SOUND 1215            53     130/  8/ 10   N/A           0
EASTERN LI SOUND NOT AVBL
ROBBINS REEF     1242            63     180/  9/ 10 1016.7
$$


>>>>>>>>>>>>>>>>>>>>>>>>>>>> KEY <<<<<<<<<<<<<<<<<<<<<<<<<<<
>                                                          <
>     SKY/WX - Sky Condition/Present Weather               <
>     TMP    - Temperature in Fahrenheit                   <
>     DP     - Dew Point in Fahrenheit                     <
>     RH     - Relative Humidity in Percent                <
>     WIND   - Direction (from) and Speed in MPH           <
>     PRES   - Mean Sea Level Pressure (inches of Hg)      <
>     WCI    - Wind Chill Index                            <
>     VSB    - VISIBILITY IN MILES                         <
>     HX     - HEAT INDEX                                  <
>     TC     - TEMPERATURE IN CELSIUS                      <
>     VRB    - VARIABLE WIND DIRECTION                     <
>                                                          <
>>>>>>>>>>>>>>>>>>>>>>>>>>>> KEY <<<<<<<<<<<<<<<<<<<<<<<<<<<




USA.gov is the U.S. government's official web portal to all federal, state and local government web resources and services.